Honolulu, HI

2:51 PM HST on April 25, 2017 (GMT -1000)
Honolulu International

Weather History for PHNL - March, 2014

Change the Weather History Date:

Sunday, March 2, 2014

  Actual Average Record
Temperature  
Mean Temperature 70 °F 74 °F  
Max Temperature 72 °F 81 °F 86 °F (2015)
Min Temperature 68 °F 67 °F 58 °F (1983)
Degree Days  
Heating Degree Days 0 0  
Month to date heating degree days 0 0  
Since 1 July heating degree days 0 0  
Cooling Degree Days 5 9  
Month to date cooling degree days 14 17  
Year to date cooling degree days 533 499  
Growing Degree Days 20 (Base 50)    
Moisture  
Dew Point 66 °F    
Average Humidity 87    
Maximum Humidity 100    
Minimum Humidity 73    
Precipitation  
Precipitation 0.23 in 0.06 in 1.13 in (1989)
Month to date precipitation 0.77 0.13  
Year to date precipitation 4.45 4.43  
Snow  
Snow 0.00 in - - ()
Month to date snowfall 0.0  
Since 1 July snowfall 0.0  
Snow Depth 0.00 in    
Sea Level Pressure  
Sea Level Pressure 29.90 in    
Wind  
Wind Speed 4 mph (NNW)    
Max Wind Speed 18 mph    
Max Gust Speed 22 mph    
Visibility 10 miles    
Events Rain    
T = Trace of Precipitation, MM = Missing Value Source: NWS Daily Summary

Daily Weather History Graph

Daily Weather History Graph

Search for Another Location

Airport or City:

Trip Planner

Search our weather history database for the weather conditions in past years. The results will help you decide how hot, cold, wet, or windy it might be!

Date:

Astronomy

Mar. 02, 2014 Rise Set
Actual Time 6:51 AM HST 6:36 PM HST
Civil Twilight 6:28 AM HST 6:58 PM HST
Nautical Twilight 6:03 AM HST 7:24 PM HST
Astronomical Twilight 5:37 AM HST 7:50 PM HST
Moon 7:46 AM HST (3/2) 8:24 PM HST (3/2)
Length of Visible Light 12h 29m
Length of Day
11h 45m
Waxing Crescent, 3% of the Moon is Illuminated
Mar 2
Waxing Crescent
Mar 8
First Quarter
Mar 16
Full
Mar 23
Last Quarter
Mar 30
New

Hourly Weather History & Observations

Time (HST) Temp. Dew Point Humidity Pressure Visibility Wind Dir Wind Speed Gust Speed Precip Events Conditions
12:53 AM 70.0 °F 70.0 °F 100% 29.93 in 10.0 mi North 3.5 mph - 0.02 in   Mostly Cloudy
1:53 AM 71.1 °F 70.0 °F 96% 29.89 in 10.0 mi Calm Calm - N/A   Mostly Cloudy
2:53 AM 70.0 °F 69.1 °F 97% 29.88 in 10.0 mi Calm Calm - N/A   Mostly Cloudy
3:53 AM 71.1 °F 68.0 °F 90% 29.87 in 10.0 mi Calm Calm - 0.00 in   Mostly Cloudy
4:53 AM 70.0 °F 68.0 °F 93% 29.88 in 9.0 mi Calm Calm - 0.02 in Rain Light Rain
5:53 AM 70.0 °F 68.0 °F 93% 29.88 in 10.0 mi North 3.5 mph - 0.02 in Rain Light Rain
6:53 AM 70.0 °F 66.9 °F 90% 29.90 in 10.0 mi Calm Calm - 0.02 in Rain Light Rain
7:53 AM 70.0 °F 66.9 °F 90% 29.91 in 10.0 mi NE 3.5 mph - 0.01 in Rain Light Rain
8:53 AM 70.0 °F 66.9 °F 90% 29.96 in 5.0 mi Calm Calm - 0.02 in Rain Rain
9:53 AM 71.1 °F 71.1 °F 100% 29.96 in 10.0 mi Calm Calm - 0.04 in Rain Light Rain
10:53 AM 72.0 °F 66.9 °F 84% 29.94 in 10.0 mi East 3.5 mph - 0.01 in Rain Light Rain
11:53 AM 72.0 °F 66.9 °F 84% 29.94 in 10.0 mi South 5.8 mph - 0.00 in Rain Light Rain
12:18 PM 71.6 °F 68.0 °F 88% 29.95 in 10.0 mi SW 4.6 mph - 0.01 in Rain Light Rain
12:53 PM 71.1 °F 66.9 °F 87% 29.91 in 7.0 mi Calm Calm - 0.03 in Rain Rain
1:09 PM 71.6 °F 68.0 °F 88% 29.90 in 9.0 mi SSE 4.6 mph - 0.01 in Rain Light Rain
1:43 PM 69.8 °F 69.8 °F 100% 29.90 in 10.0 mi WNW 13.8 mph - 0.03 in Rain Light Rain
1:53 PM 69.1 °F 66.9 °F 93% 29.90 in 8.0 mi NW 15.0 mph - 0.04 in Rain Light Rain
2:01 PM 69.8 °F 66.2 °F 88% 29.89 in 10.0 mi NNW 12.7 mph - 0.00 in Rain Light Rain
2:08 PM 69.8 °F 66.2 °F 88% 29.87 in 10.0 mi NNW 13.8 mph - 0.00 in Rain Light Rain
2:36 PM 69.8 °F 62.6 °F 78% 29.88 in 10.0 mi NW 13.8 mph - 0.00 in Rain Light Rain
2:53 PM 69.1 °F 63.0 °F 81% 29.88 in 10.0 mi NW 12.7 mph - 0.00 in   Overcast
3:53 PM 70.0 °F 64.0 °F 81% 29.90 in 10.0 mi NNW 9.2 mph - 0.00 in   Mostly Cloudy
4:53 PM 70.0 °F 63.0 °F 78% 29.89 in 10.0 mi NW 8.1 mph 16.1 mph N/A   Overcast
5:53 PM 70.0 °F 61.0 °F 73% 29.86 in 10.0 mi Calm Calm - N/A   Mostly Cloudy
6:53 PM 70.0 °F 61.0 °F 73% 29.88 in 10.0 mi Variable 4.6 mph - 0.00 in   Mostly Cloudy
7:53 PM 70.0 °F 60.1 °F 71% 29.91 in 10.0 mi NW 5.8 mph - N/A   Mostly Cloudy
8:53 PM 69.1 °F 60.1 °F 73% 29.90 in 10.0 mi ENE 5.8 mph - N/A   Mostly Cloudy
9:53 PM 68.0 °F 62.1 °F 81% 29.89 in 10.0 mi ENE 5.8 mph - N/A   Mostly Cloudy
10:53 PM 69.1 °F 63.0 °F 81% 29.95 in 10.0 mi WNW 9.2 mph - N/A   Mostly Cloudy
11:53 PM 68.0 °F 62.1 °F 81% 29.89 in 10.0 mi NW 3.5 mph - N/A   Mostly Cloudy